Year,Month,Day,Hour,Minute,Value (Times are PST for windspeed in km/hr)
2010,07,11,00,00,4.60
2010,07,11,00,01,6.10
2010,07,11,00,02,8.00
2010,07,11,00,03,5.60
2010,07,11,00,04,6.50
2010,07,11,00,05,7.90
2010,07,11,00,06,5.40
2010,07,11,00,07,7.70
2010,07,11,00,08,9.30
2010,07,11,00,09,11.70
2010,07,11,00,10,5.50
2010,07,11,00,11,7.60
2010,07,11,00,12,9.20
2010,07,11,00,13,13.50
2010,07,11,00,14,9.50
2010,07,11,00,15,10.00
2010,07,11,00,16,7.00
2010,07,11,00,17,9.70
2010,07,11,00,18,8.60
2010,07,11,00,19,10.50
2010,07,11,00,20,9.40
2010,07,11,00,21,6.10
2010,07,11,00,22,9.00
2010,07,11,00,23,7.80
2010,07,11,00,24,9.70
2010,07,11,00,25,9.70
2010,07,11,00,26,9.00
2010,07,11,00,27,8.00
2010,07,11,00,28,4.40
2010,07,11,00,29,6.10
2010,07,11,00,30,5.20
2010,07,11,00,31,0.60
2010,07,11,00,32,5.30
2010,07,11,00,33,1.30
2010,07,11,00,34,6.30
2010,07,11,00,35,1.40
2010,07,11,00,36,1.70
2010,07,11,00,37,4.70
2010,07,11,00,38,4.60
2010,07,11,00,39,2.20
2010,07,11,00,40,4.40
2010,07,11,00,41,4.90
2010,07,11,00,42,4.70
2010,07,11,00,43,2.80
2010,07,11,00,44,7.10
2010,07,11,00,45,3.10
2010,07,11,00,46,6.10
2010,07,11,00,47,6.40
2010,07,11,00,48,2.70
2010,07,11,00,49,8.00
2010,07,11,00,50,5.40
2010,07,11,00,51,6.20
2010,07,11,00,52,7.00
2010,07,11,00,53,5.40
2010,07,11,00,54,4.90
2010,07,11,00,55,4.10
2010,07,11,00,56,4.70
2010,07,11,00,57,5.20
2010,07,11,00,58,3.10
2010,07,11,00,59,5.70
2010,07,11,01,00,4.10
2010,07,11,01,01,6.70
2010,07,11,01,02,4.00
2010,07,11,01,03,4.40
2010,07,11,01,04,6.90
2010,07,11,01,05,2.90
2010,07,11,01,06,6.10
2010,07,11,01,07,4.40
2010,07,11,01,08,4.70
2010,07,11,01,09,6.60
2010,07,11,01,10,5.10
2010,07,11,01,11,3.00
2010,07,11,01,12,0.70
2010,07,11,01,13,8.90
2010,07,11,01,14,7.70
2010,07,11,01,15,3.70
2010,07,11,01,16,1.80
2010,07,11,01,17,4.80
2010,07,11,01,18,7.00
2010,07,11,01,19,3.20
2010,07,11,01,20,0.80
2010,07,11,01,21,5.90
2010,07,11,01,22,9.40
2010,07,11,01,23,5.30
2010,07,11,01,24,2.60
2010,07,11,01,25,2.30
2010,07,11,01,26,4.60
2010,07,11,01,27,4.00
2010,07,11,01,28,2.80
2010,07,11,01,29,2.60
2010,07,11,01,30,4.60
2010,07,11,01,31,3.70
2010,07,11,01,32,5.70
2010,07,11,01,33,2.70
2010,07,11,01,34,3.50
2010,07,11,01,35,4.90
2010,07,11,01,36,2.50
2010,07,11,01,37,2.30
2010,07,11,01,38,3.90
2010,07,11,01,39,2.50
2010,07,11,01,40,5.40
2010,07,11,01,41,3.00
2010,07,11,01,42,1.50
2010,07,11,01,43,3.20
2010,07,11,01,44,6.00
2010,07,11,01,45,3.70
2010,07,11,01,46,3.60
2010,07,11,01,47,3.50
2010,07,11,01,48,5.20
2010,07,11,01,49,3.90
2010,07,11,01,50,1.70
2010,07,11,01,51,5.10
2010,07,11,01,52,7.00
2010,07,11,01,53,5.00
2010,07,11,01,54,3.30
2010,07,11,01,55,6.70
2010,07,11,01,56,5.10
2010,07,11,01,57,3.90
2010,07,11,01,58,4.50
2010,07,11,01,59,3.00
2010,07,11,02,00,1.10
2010,07,11,02,01,2.90
2010,07,11,02,02,4.40
2010,07,11,02,03,3.90
2010,07,11,02,04,3.60
2010,07,11,02,05,3.50
2010,07,11,02,06,1.30
2010,07,11,02,07,4.70
2010,07,11,02,08,1.80
2010,07,11,02,09,4.20
2010,07,11,02,10,1.70
2010,07,11,02,11,6.00
2010,07,11,02,12,2.70
2010,07,11,02,13,5.10
2010,07,11,02,14,3.50
2010,07,11,02,15,4.40
2010,07,11,02,16,1.80
2010,07,11,02,17,0.70
2010,07,11,02,18,2.50
2010,07,11,02,19,1.10
2010,07,11,02,20,1.60
2010,07,11,02,21,3.90
2010,07,11,02,22,1.80
2010,07,11,02,23,2.20
2010,07,11,02,24,1.80
2010,07,11,02,25,0.90
2010,07,11,02,26,0.70
2010,07,11,02,27,1.20
2010,07,11,02,28,0.90
2010,07,11,02,29,0.70
2010,07,11,02,30,0.40
2010,07,11,02,31,0.20
2010,07,11,02,32,0.50
2010,07,11,02,33,0.60
2010,07,11,02,34,1.40
2010,07,11,02,35,3.40
2010,07,11,02,36,1.00
2010,07,11,02,37,1.10
2010,07,11,02,38,0.80
2010,07,11,02,39,0.30
2010,07,11,02,40,3.90
2010,07,11,02,41,1.40
2010,07,11,02,42,1.10
2010,07,11,02,43,0.30
2010,07,11,02,44,1.60
2010,07,11,02,45,1.50
2010,07,11,02,46,2.80
2010,07,11,02,47,2.20
2010,07,11,02,48,0.00
2010,07,11,02,49,0.30
2010,07,11,02,50,0.00
2010,07,11,02,51,0.00
2010,07,11,02,52,1.50
2010,07,11,02,53,2.40
2010,07,11,02,54,3.90
2010,07,11,02,55,2.00
2010,07,11,02,56,2.10
2010,07,11,02,57,1.00
2010,07,11,02,58,2.00
2010,07,11,02,59,1.60
2010,07,11,03,00,1.70
2010,07,11,03,01,1.50
2010,07,11,03,02,2.40
2010,07,11,03,03,4.20
2010,07,11,03,04,2.10
2010,07,11,03,05,1.90
2010,07,11,03,06,1.30
2010,07,11,03,07,1.40
2010,07,11,03,08,2.50
2010,07,11,03,09,3.40
2010,07,11,03,10,1.40
2010,07,11,03,11,2.80
2010,07,11,03,12,1.20
2010,07,11,03,13,2.00
2010,07,11,03,14,2.10
2010,07,11,03,15,2.50
2010,07,11,03,16,1.60
2010,07,11,03,17,0.30
2010,07,11,03,18,0.80
2010,07,11,03,19,0.30
2010,07,11,03,20,0.50
2010,07,11,03,21,0.80
2010,07,11,03,22,1.30
2010,07,11,03,23,0.80
2010,07,11,03,24,0.10
2010,07,11,03,25,0.00
2010,07,11,03,26,0.40
2010,07,11,03,27,0.20
2010,07,11,03,28,0.00
2010,07,11,03,29,0.00
2010,07,11,03,30,0.20
2010,07,11,03,31,0.10
2010,07,11,03,32,0.50
2010,07,11,03,33,1.20
2010,07,11,03,34,0.10
2010,07,11,03,35,0.00
2010,07,11,03,36,0.00
2010,07,11,03,37,0.00
2010,07,11,03,38,0.00
2010,07,11,03,39,0.00
2010,07,11,03,40,0.00
2010,07,11,03,41,0.00
2010,07,11,03,42,0.20
2010,07,11,03,43,0.00
2010,07,11,03,44,0.10
2010,07,11,03,45,0.00
2010,07,11,03,46,0.10
2010,07,11,03,47,0.00
2010,07,11,03,48,0.10
2010,07,11,03,49,0.30
2010,07,11,03,50,0.00
2010,07,11,03,51,0.00
2010,07,11,03,52,0.10
2010,07,11,03,53,0.00
2010,07,11,03,54,1.40
2010,07,11,03,55,0.10
2010,07,11,03,56,0.10
2010,07,11,03,57,0.20
2010,07,11,03,58,1.70
2010,07,11,03,59,0.10
2010,07,11,04,00,0.00
2010,07,11,04,01,0.00
2010,07,11,04,02,0.30
2010,07,11,04,03,0.10
2010,07,11,04,04,0.00
2010,07,11,04,05,0.00
2010,07,11,04,06,0.00
2010,07,11,04,07,0.00
2010,07,11,04,08,0.10
2010,07,11,04,09,0.20
2010,07,11,04,10,0.80
2010,07,11,04,11,0.40
2010,07,11,04,12,0.00
2010,07,11,04,13,0.10
2010,07,11,04,14,0.00
2010,07,11,04,15,0.00
2010,07,11,04,16,0.20
2010,07,11,04,17,1.70
2010,07,11,04,18,0.40
2010,07,11,04,19,0.50
2010,07,11,04,20,0.30
2010,07,11,04,21,0.10
2010,07,11,04,22,0.60
2010,07,11,04,23,2.20
2010,07,11,04,24,1.60
2010,07,11,04,25,0.30
2010,07,11,04,26,1.50
2010,07,11,04,27,0.50
2010,07,11,04,28,0.30
2010,07,11,04,29,0.40
2010,07,11,04,30,1.20
2010,07,11,04,31,0.80
2010,07,11,04,32,1.00
2010,07,11,04,33,0.20
2010,07,11,04,34,0.00
2010,07,11,04,35,0.60
2010,07,11,04,36,0.00
2010,07,11,04,37,0.10
2010,07,11,04,38,0.00
2010,07,11,04,39,0.00
2010,07,11,04,40,0.10
2010,07,11,04,41,0.00
2010,07,11,04,42,0.00
2010,07,11,04,43,0.00
2010,07,11,04,44,0.00
2010,07,11,04,45,0.40
2010,07,11,04,46,0.00
2010,07,11,04,47,0.00
2010,07,11,04,48,0.10
2010,07,11,04,49,0.40
2010,07,11,04,50,0.30
2010,07,11,04,51,0.10
2010,07,11,04,52,0.10
2010,07,11,04,53,0.00
2010,07,11,04,54,1.60
2010,07,11,04,55,0.50
2010,07,11,04,56,0.30
2010,07,11,04,57,0.20
2010,07,11,04,58,1.40
2010,07,11,04,59,0.70
2010,07,11,05,00,0.40
2010,07,11,05,01,0.10
2010,07,11,05,02,0.20
2010,07,11,05,03,0.40
2010,07,11,05,04,0.20
2010,07,11,05,05,0.40
2010,07,11,05,06,1.40
2010,07,11,05,07,1.10
2010,07,11,05,08,0.10
2010,07,11,05,09,0.40
2010,07,11,05,10,0.20
2010,07,11,05,11,0.30
2010,07,11,05,12,0.00
2010,07,11,05,13,0.10
2010,07,11,05,14,0.10
2010,07,11,05,15,0.20
2010,07,11,05,16,0.00
2010,07,11,05,17,0.10
2010,07,11,05,18,0.00
2010,07,11,05,19,0.00
2010,07,11,05,20,0.00
2010,07,11,05,21,0.00
2010,07,11,05,22,0.00
2010,07,11,05,23,0.10
2010,07,11,05,24,0.00
2010,07,11,05,25,0.00
2010,07,11,05,26,0.30
2010,07,11,05,27,0.10
2010,07,11,05,28,0.10
2010,07,11,05,29,0.00
2010,07,11,05,30,0.10
2010,07,11,05,31,0.50
2010,07,11,05,32,0.00
2010,07,11,05,33,0.00
2010,07,11,05,34,0.70
2010,07,11,05,35,0.00
2010,07,11,05,36,0.00
2010,07,11,05,37,0.10
2010,07,11,05,38,0.00
2010,07,11,05,39,0.00
2010,07,11,05,40,0.00
2010,07,11,05,41,0.00
2010,07,11,05,42,0.00
2010,07,11,05,43,0.00
2010,07,11,05,44,0.00
2010,07,11,05,45,0.00
2010,07,11,05,46,0.20
2010,07,11,05,47,1.00
2010,07,11,05,48,0.00
2010,07,11,05,49,0.00
2010,07,11,05,50,0.00
2010,07,11,05,51,0.80
2010,07,11,05,52,0.30
2010,07,11,05,53,0.30
2010,07,11,05,54,0.00
2010,07,11,05,55,0.00
2010,07,11,05,56,0.40
2010,07,11,05,57,0.00
2010,07,11,05,58,0.00
2010,07,11,05,59,0.10
2010,07,11,06,00,0.60
2010,07,11,06,01,0.00
2010,07,11,06,02,0.20
2010,07,11,06,03,0.00
2010,07,11,06,04,0.80
2010,07,11,06,05,0.30
2010,07,11,06,06,0.00
2010,07,11,06,07,0.00
2010,07,11,06,08,0.20
2010,07,11,06,09,0.00
2010,07,11,06,10,0.40
2010,07,11,06,11,0.40
2010,07,11,06,12,0.80
2010,07,11,06,13,0.40
2010,07,11,06,14,0.00
2010,07,11,06,15,0.00
2010,07,11,06,16,0.20
2010,07,11,06,17,0.20
2010,07,11,06,18,1.90
2010,07,11,06,19,1.50
2010,07,11,06,20,1.30
2010,07,11,06,21,1.60
2010,07,11,06,22,1.40
2010,07,11,06,23,2.70
2010,07,11,06,24,2.80
2010,07,11,06,25,1.20
2010,07,11,06,26,0.20
2010,07,11,06,27,0.20
2010,07,11,06,28,0.30
2010,07,11,06,29,0.00
2010,07,11,06,30,0.10
2010,07,11,06,31,1.00
2010,07,11,06,32,0.20
2010,07,11,06,33,0.80
2010,07,11,06,34,1.10
2010,07,11,06,35,0.10
2010,07,11,06,36,0.00
2010,07,11,06,37,1.00
2010,07,11,06,38,1.50
2010,07,11,06,39,0.40
2010,07,11,06,40,0.00
2010,07,11,06,41,0.00
2010,07,11,06,42,0.30
2010,07,11,06,43,0.20
2010,07,11,06,44,0.60
2010,07,11,06,45,0.60
2010,07,11,06,46,1.40
2010,07,11,06,47,0.10
2010,07,11,06,48,0.20
2010,07,11,06,49,1.40
2010,07,11,06,50,0.20
2010,07,11,06,51,1.60
2010,07,11,06,52,1.40
2010,07,11,06,53,0.90
2010,07,11,06,54,1.20
2010,07,11,06,55,2.30
2010,07,11,06,56,1.80
2010,07,11,06,57,1.90
2010,07,11,06,58,2.50
2010,07,11,06,59,2.00
2010,07,11,07,00,3.20
2010,07,11,07,01,0.90
2010,07,11,07,02,1.00
2010,07,11,07,03,1.20
2010,07,11,07,04,3.70
2010,07,11,07,05,1.40
2010,07,11,07,06,1.40
2010,07,11,07,07,3.40
2010,07,11,07,08,2.90
2010,07,11,07,09,2.90
2010,07,11,07,10,3.30
2010,07,11,07,11,2.20
2010,07,11,07,12,2.90
2010,07,11,07,13,0.40
2010,07,11,07,14,2.20
2010,07,11,07,15,3.10
2010,07,11,07,16,0.40
2010,07,11,07,17,1.30
2010,07,11,07,18,0.80
2010,07,11,07,19,0.90
2010,07,11,07,20,0.10
2010,07,11,07,21,1.40
2010,07,11,07,22,4.80
2010,07,11,07,23,1.50
2010,07,11,07,24,2.80
2010,07,11,07,25,0.60
2010,07,11,07,26,0.70
2010,07,11,07,27,1.70
2010,07,11,07,28,1.50
2010,07,11,07,29,0.90
2010,07,11,07,30,3.30
2010,07,11,07,31,3.30
2010,07,11,07,32,2.00
2010,07,11,07,33,0.90
2010,07,11,07,34,1.90
2010,07,11,07,35,0.40
2010,07,11,07,36,1.70
2010,07,11,07,37,2.30
2010,07,11,07,38,1.00
2010,07,11,07,39,2.30
2010,07,11,07,40,0.80
2010,07,11,07,41,3.80
2010,07,11,07,42,4.20
2010,07,11,07,43,2.00
2010,07,11,07,44,3.00
2010,07,11,07,45,2.90
2010,07,11,07,46,1.70
2010,07,11,07,47,1.90
2010,07,11,07,48,1.00
2010,07,11,07,49,1.30
2010,07,11,07,50,5.30
2010,07,11,07,51,4.60
2010,07,11,07,52,3.10
2010,07,11,07,53,3.10
2010,07,11,07,54,3.20
2010,07,11,07,55,2.10
2010,07,11,07,56,2.50
2010,07,11,07,57,6.70
2010,07,11,07,58,7.40
2010,07,11,07,59,1.70
2010,07,11,08,00,3.90
2010,07,11,08,01,3.50
2010,07,11,08,02,2.70
2010,07,11,08,03,2.40
2010,07,11,08,04,3.80
2010,07,11,08,05,2.50
2010,07,11,08,06,0.90
2010,07,11,08,07,2.40
2010,07,11,08,08,0.90
2010,07,11,08,09,0.50
2010,07,11,08,10,0.30
2010,07,11,08,11,0.00
2010,07,11,08,12,0.00
2010,07,11,08,13,0.40
2010,07,11,08,14,2.60
2010,07,11,08,15,2.00
2010,07,11,08,16,4.70
2010,07,11,08,17,3.70
2010,07,11,08,18,3.20
2010,07,11,08,19,3.40
2010,07,11,08,20,3.40
2010,07,11,08,21,2.70
2010,07,11,08,22,2.00
2010,07,11,08,23,3.10
2010,07,11,08,24,1.20
2010,07,11,08,25,1.40
2010,07,11,08,26,1.80
2010,07,11,08,27,1.80
2010,07,11,08,28,2.10
2010,07,11,08,29,3.00
2010,07,11,08,30,1.00
2010,07,11,08,31,3.20
2010,07,11,08,32,1.20
2010,07,11,08,33,3.00
2010,07,11,08,34,3.00
2010,07,11,08,35,2.00
2010,07,11,08,36,3.60
2010,07,11,08,37,1.40
2010,07,11,08,38,1.60
2010,07,11,08,39,3.50
2010,07,11,08,40,1.50
2010,07,11,08,41,2.40
2010,07,11,08,42,3.20
2010,07,11,08,43,1.20
2010,07,11,08,44,1.60
2010,07,11,08,45,2.20
2010,07,11,08,46,3.50
2010,07,11,08,47,1.50
2010,07,11,08,48,2.80
2010,07,11,08,49,1.50
2010,07,11,08,50,3.60
2010,07,11,08,51,3.20
2010,07,11,08,52,1.60
2010,07,11,08,53,2.90
2010,07,11,08,54,2.30
2010,07,11,08,55,1.90
2010,07,11,08,56,0.80
2010,07,11,08,57,1.00
2010,07,11,08,58,1.30
2010,07,11,08,59,2.00
2010,07,11,09,00,1.40
2010,07,11,09,01,1.10
2010,07,11,09,02,2.80
2010,07,11,09,03,3.50
2010,07,11,09,04,5.00
2010,07,11,09,05,1.50
2010,07,11,09,06,1.50
2010,07,11,09,07,3.20
2010,07,11,09,08,2.30
2010,07,11,09,09,2.70
2010,07,11,09,10,3.50
2010,07,11,09,11,0.60
2010,07,11,09,12,2.00
2010,07,11,09,13,0.60
2010,07,11,09,14,3.30
2010,07,11,09,15,1.70
2010,07,11,09,16,0.50
2010,07,11,09,17,2.70
2010,07,11,09,18,1.30
2010,07,11,09,19,3.00
2010,07,11,09,20,1.80
2010,07,11,09,21,3.90
2010,07,11,09,22,0.20
2010,07,11,09,23,0.20
2010,07,11,09,24,1.70
2010,07,11,09,25,3.20
2010,07,11,09,26,1.90
2010,07,11,09,27,1.40
2010,07,11,09,28,2.60
2010,07,11,09,29,4.80
2010,07,11,09,30,2.90
2010,07,11,09,31,2.90
2010,07,11,09,32,1.80
2010,07,11,09,33,2.60
2010,07,11,09,34,2.40
2010,07,11,09,35,3.30
2010,07,11,09,36,1.80
2010,07,11,09,37,2.10
2010,07,11,09,38,3.90
2010,07,11,09,39,1.00
2010,07,11,09,40,2.30
2010,07,11,09,41,1.80
2010,07,11,09,42,1.30
2010,07,11,09,43,2.80
2010,07,11,09,44,3.80
2010,07,11,09,45,1.90
2010,07,11,09,46,3.20
2010,07,11,09,47,1.80
2010,07,11,09,48,2.80
2010,07,11,09,49,4.20
2010,07,11,09,50,4.90
2010,07,11,09,51,3.30
2010,07,11,09,52,4.90
2010,07,11,09,53,4.20
2010,07,11,09,54,1.40
2010,07,11,09,55,2.30
2010,07,11,09,56,5.40
2010,07,11,09,57,3.70
2010,07,11,09,58,4.10
2010,07,11,09,59,3.20
2010,07,11,10,00,3.00
2010,07,11,10,01,4.90
2010,07,11,10,02,3.70
2010,07,11,10,03,4.30
2010,07,11,10,04,3.70
2010,07,11,10,05,2.40
2010,07,11,10,06,2.70
2010,07,11,10,07,2.90
2010,07,11,10,08,2.00
2010,07,11,10,09,1.80
2010,07,11,10,10,3.10
2010,07,11,10,11,5.70
2010,07,11,10,12,4.80
2010,07,11,10,13,4.50
2010,07,11,10,14,4.00
2010,07,11,10,15,4.70
2010,07,11,10,16,5.30
2010,07,11,10,17,6.20
2010,07,11,10,18,4.70
2010,07,11,10,19,5.10
2010,07,11,10,20,2.90
2010,07,11,10,21,5.10
2010,07,11,10,22,5.60
2010,07,11,10,23,6.40
2010,07,11,10,24,5.10
2010,07,11,10,25,4.40
2010,07,11,10,26,5.50
2010,07,11,10,27,9.60
2010,07,11,10,28,8.10
2010,07,11,10,29,7.20
2010,07,11,10,30,5.50
2010,07,11,10,31,4.50
2010,07,11,10,32,4.30
2010,07,11,10,33,4.20
2010,07,11,10,34,3.60
2010,07,11,10,35,5.50
2010,07,11,10,36,4.10
2010,07,11,10,37,4.00
2010,07,11,10,38,5.80
2010,07,11,10,39,6.00
2010,07,11,10,40,4.00
2010,07,11,10,41,5.30
2010,07,11,10,42,7.50
2010,07,11,10,43,5.70
2010,07,11,10,44,6.70
2010,07,11,10,45,6.70
2010,07,11,10,46,3.50
2010,07,11,10,47,2.50
2010,07,11,10,48,4.90
2010,07,11,10,49,3.90
2010,07,11,10,50,6.40
2010,07,11,10,51,4.10
2010,07,11,10,52,5.90
2010,07,11,10,53,2.60
2010,07,11,10,54,3.20
2010,07,11,10,55,6.30
2010,07,11,10,56,5.50
2010,07,11,10,57,5.80
2010,07,11,10,58,4.90
2010,07,11,10,59,5.50
2010,07,11,11,00,7.00
2010,07,11,11,01,9.50
2010,07,11,11,02,8.60
2010,07,11,11,03,2.60
2010,07,11,11,04,7.90
2010,07,11,11,05,6.80
2010,07,11,11,06,6.90
2010,07,11,11,07,7.30
2010,07,11,11,08,2.20
2010,07,11,11,09,3.00
2010,07,11,11,10,8.10
2010,07,11,11,11,5.20
2010,07,11,11,12,4.00
2010,07,11,11,13,2.00
2010,07,11,11,14,3.40
2010,07,11,11,15,5.10
2010,07,11,11,16,6.10
2010,07,11,11,17,8.10
2010,07,11,11,18,7.50
2010,07,11,11,19,8.40
2010,07,11,11,20,6.70
2010,07,11,11,21,6.60
2010,07,11,11,22,5.60
2010,07,11,11,23,7.60
2010,07,11,11,24,7.10
2010,07,11,11,25,12.40
2010,07,11,11,26,10.70
2010,07,11,11,27,8.80
2010,07,11,11,28,4.60
2010,07,11,11,29,6.30
2010,07,11,11,30,9.80
2010,07,11,11,31,6.30
2010,07,11,11,32,6.90
2010,07,11,11,33,9.10
2010,07,11,11,34,7.80
2010,07,11,11,35,10.10
2010,07,11,11,36,6.40
2010,07,11,11,37,8.50
2010,07,11,11,38,10.80
2010,07,11,11,39,9.70
2010,07,11,11,40,11.10
2010,07,11,11,41,7.20
2010,07,11,11,42,6.80
2010,07,11,11,43,3.80
2010,07,11,11,44,8.30
2010,07,11,11,45,3.00
2010,07,11,11,46,5.00
2010,07,11,11,47,5.90
2010,07,11,11,48,6.10
2010,07,11,11,49,4.70
2010,07,11,11,50,4.80
2010,07,11,11,51,12.40
2010,07,11,11,52,7.60
2010,07,11,11,53,8.80
2010,07,11,11,54,9.90
2010,07,11,11,55,9.30
2010,07,11,11,56,13.60
2010,07,11,11,57,10.50
2010,07,11,11,58,12.60
2010,07,11,11,59,5.90
2010,07,11,12,00,10.40
2010,07,11,12,01,11.00
2010,07,11,12,02,8.90
2010,07,11,12,03,7.40
2010,07,11,12,04,6.40
2010,07,11,12,05,5.10
2010,07,11,12,06,9.90
2010,07,11,12,07,9.30
2010,07,11,12,08,4.10
2010,07,11,12,09,8.00
2010,07,11,12,10,4.50
2010,07,11,12,11,5.90
2010,07,11,12,12,5.90
2010,07,11,12,13,7.50
2010,07,11,12,14,5.50
2010,07,11,12,15,4.80
2010,07,11,12,16,5.20
2010,07,11,12,17,7.50
2010,07,11,12,18,11.40
2010,07,11,12,19,11.10
2010,07,11,12,20,10.60
2010,07,11,12,21,7.30
2010,07,11,12,22,4.00
2010,07,11,12,23,10.20
2010,07,11,12,24,7.30
2010,07,11,12,25,11.70
2010,07,11,12,26,7.00
2010,07,11,12,27,8.50
2010,07,11,12,28,10.80
2010,07,11,12,29,6.10
2010,07,11,12,30,10.40
2010,07,11,12,31,7.20
2010,07,11,12,32,7.50
2010,07,11,12,33,8.40
2010,07,11,12,34,3.70
2010,07,11,12,35,5.30
2010,07,11,12,36,6.70
2010,07,11,12,37,8.60
2010,07,11,12,38,3.20
2010,07,11,12,39,4.70
2010,07,11,12,40,4.60
2010,07,11,12,41,5.50
2010,07,11,12,42,9.20
2010,07,11,12,43,7.10
2010,07,11,12,44,4.10
2010,07,11,12,45,6.70
2010,07,11,12,46,4.90
2010,07,11,12,47,2.10
2010,07,11,12,48,3.60
2010,07,11,12,49,8.20
2010,07,11,12,50,11.20
2010,07,11,12,51,6.10
2010,07,11,12,52,8.70
2010,07,11,12,53,9.90
2010,07,11,12,54,8.40
2010,07,11,12,55,9.70
2010,07,11,12,56,7.40
2010,07,11,12,57,12.60
2010,07,11,12,58,11.40
2010,07,11,12,59,10.30
2010,07,11,13,00,9.80
2010,07,11,13,01,9.30
2010,07,11,13,02,8.60
2010,07,11,13,03,9.30
2010,07,11,13,04,11.50
2010,07,11,13,05,6.70
2010,07,11,13,06,8.10
2010,07,11,13,07,4.10
2010,07,11,13,08,7.40
2010,07,11,13,09,5.80
2010,07,11,13,10,9.00
2010,07,11,13,11,9.40
2010,07,11,13,12,3.40
2010,07,11,13,13,4.50
2010,07,11,13,14,2.70
2010,07,11,13,15,3.00
2010,07,11,13,16,0.80
2010,07,11,13,17,8.20
2010,07,11,13,18,6.40
2010,07,11,13,19,5.50
2010,07,11,13,20,5.50
2010,07,11,13,21,8.50
2010,07,11,13,22,8.60
2010,07,11,13,23,9.80
2010,07,11,13,24,7.40
2010,07,11,13,25,6.50
2010,07,11,13,26,9.20
2010,07,11,13,27,10.20
2010,07,11,13,28,10.20
2010,07,11,13,29,11.70
2010,07,11,13,30,5.20
2010,07,11,13,31,11.40
2010,07,11,13,32,9.00
2010,07,11,13,33,5.00
2010,07,11,13,34,5.30
2010,07,11,13,35,5.10
2010,07,11,13,36,2.80
2010,07,11,13,37,6.40
2010,07,11,13,38,5.50
2010,07,11,13,39,8.90
2010,07,11,13,40,3.80
2010,07,11,13,41,8.00
2010,07,11,13,42,14.00
2010,07,11,13,43,13.90
2010,07,11,13,44,12.90
2010,07,11,13,45,10.90
2010,07,11,13,46,8.60
2010,07,11,13,47,9.30
2010,07,11,13,48,14.00
2010,07,11,13,49,10.20
2010,07,11,13,50,11.40
2010,07,11,13,51,10.80
2010,07,11,13,52,10.50
2010,07,11,13,53,14.10
2010,07,11,13,54,10.00
2010,07,11,13,55,8.20
2010,07,11,13,56,8.90
2010,07,11,13,57,7.20
2010,07,11,13,58,10.60
2010,07,11,13,59,10.10
2010,07,11,14,00,9.20
2010,07,11,14,01,11.60
2010,07,11,14,02,12.30
2010,07,11,14,03,9.20
2010,07,11,14,04,9.60
2010,07,11,14,05,10.60
2010,07,11,14,06,10.30
2010,07,11,14,07,7.70
2010,07,11,14,08,8.60
2010,07,11,14,09,8.90
2010,07,11,14,10,10.00
2010,07,11,14,11,10.50
2010,07,11,14,12,10.10
2010,07,11,14,13,11.60
2010,07,11,14,14,10.00
2010,07,11,14,15,8.00
2010,07,11,14,16,5.40
2010,07,11,14,17,7.50
2010,07,11,14,18,10.10
2010,07,11,14,19,10.10
2010,07,11,14,20,5.90
2010,07,11,14,21,8.70
2010,07,11,14,22,5.30
2010,07,11,14,23,8.50
2010,07,11,14,24,10.10
2010,07,11,14,25,4.80
2010,07,11,14,26,6.00
2010,07,11,14,27,5.40
2010,07,11,14,28,9.90
2010,07,11,14,29,3.80
2010,07,11,14,30,6.00
2010,07,11,14,31,5.90
2010,07,11,14,32,4.10
2010,07,11,14,33,5.50
2010,07,11,14,34,5.10
2010,07,11,14,35,2.60
2010,07,11,14,36,6.60
2010,07,11,14,37,4.80
2010,07,11,14,38,8.80
2010,07,11,14,39,6.10
2010,07,11,14,40,4.40
2010,07,11,14,41,7.20
2010,07,11,14,42,2.50
2010,07,11,14,43,4.40
2010,07,11,14,44,4.10
2010,07,11,14,45,5.00
2010,07,11,14,46,4.90
2010,07,11,14,47,8.00
2010,07,11,14,48,6.50
2010,07,11,14,49,4.80
2010,07,11,14,50,6.50
2010,07,11,14,51,8.00
2010,07,11,14,52,7.20
2010,07,11,14,53,9.20
2010,07,11,14,54,7.60
2010,07,11,14,55,8.90
2010,07,11,14,56,10.50
2010,07,11,14,57,6.30
2010,07,11,14,58,8.10
2010,07,11,14,59,7.20
2010,07,11,15,00,6.90
2010,07,11,15,01,7.60
2010,07,11,15,02,9.20
2010,07,11,15,03,8.60
2010,07,11,15,04,7.20
2010,07,11,15,05,6.70
2010,07,11,15,06,6.00
2010,07,11,15,07,6.90
2010,07,11,15,08,8.10
2010,07,11,15,09,4.60
2010,07,11,15,10,8.00
2010,07,11,15,11,8.70
2010,07,11,15,12,8.00
2010,07,11,15,13,4.50
2010,07,11,15,14,5.80
2010,07,11,15,15,6.00
2010,07,11,15,16,4.10
2010,07,11,15,17,6.30
2010,07,11,15,18,5.80
2010,07,11,15,19,6.10
2010,07,11,15,20,2.80
2010,07,11,15,21,7.20
2010,07,11,15,22,7.70
2010,07,11,15,23,8.60
2010,07,11,15,24,8.40
2010,07,11,15,25,10.10
2010,07,11,15,26,14.20
2010,07,11,15,27,12.20
2010,07,11,15,28,12.20
2010,07,11,15,29,7.00
2010,07,11,15,30,17.70
2010,07,11,15,31,5.40
2010,07,11,15,32,5.30
2010,07,11,15,33,8.00
2010,07,11,15,34,10.10
2010,07,11,15,35,3.30
2010,07,11,15,36,6.40
2010,07,11,15,37,4.60
2010,07,11,15,38,6.00
2010,07,11,15,39,4.30
2010,07,11,15,40,7.40
2010,07,11,15,41,6.90
2010,07,11,15,42,14.90
2010,07,11,15,43,8.90
2010,07,11,15,44,10.70
2010,07,11,15,45,11.10
2010,07,11,15,46,11.40
2010,07,11,15,47,8.40
2010,07,11,15,48,10.80
2010,07,11,15,49,12.60
2010,07,11,15,50,14.00
2010,07,11,15,51,11.10
2010,07,11,15,52,16.00
2010,07,11,15,53,14.50
2010,07,11,15,54,19.30
2010,07,11,15,55,13.00
2010,07,11,15,56,16.70
2010,07,11,15,57,17.30
2010,07,11,15,58,11.70
2010,07,11,15,59,14.80
2010,07,11,16,00,14.70
2010,07,11,16,01,15.20
2010,07,11,16,02,11.40
2010,07,11,16,03,15.50
2010,07,11,16,04,17.10
2010,07,11,16,05,17.50
2010,07,11,16,06,13.40
2010,07,11,16,07,15.20
2010,07,11,16,08,17.60
2010,07,11,16,09,11.60
2010,07,11,16,10,18.00
2010,07,11,16,11,23.90
2010,07,11,16,12,21.90
2010,07,11,16,13,21.90
2010,07,11,16,14,12.50
2010,07,11,16,15,15.60
2010,07,11,16,16,14.50
2010,07,11,16,17,21.90
2010,07,11,16,18,19.60
2010,07,11,16,19,19.30
2010,07,11,16,20,12.00
2010,07,11,16,21,25.70
2010,07,11,16,22,20.50
2010,07,11,16,23,21.00
2010,07,11,16,24,19.70
2010,07,11,16,25,20.50
2010,07,11,16,26,19.50
2010,07,11,16,27,14.20
2010,07,11,16,28,14.70
2010,07,11,16,29,19.80
2010,07,11,16,30,22.90
2010,07,11,16,31,22.50
2010,07,11,16,32,16.90
2010,07,11,16,33,18.60
2010,07,11,16,34,16.00
2010,07,11,16,35,17.60
2010,07,11,16,36,16.90
2010,07,11,16,37,23.10
2010,07,11,16,38,15.00
2010,07,11,16,39,18.20
2010,07,11,16,40,18.40
2010,07,11,16,41,17.70
2010,07,11,16,42,18.00
2010,07,11,16,43,15.20
2010,07,11,16,44,12.70
2010,07,11,16,45,11.40
2010,07,11,16,46,11.60
2010,07,11,16,47,18.70
2010,07,11,16,48,14.60
2010,07,11,16,49,8.40
2010,07,11,16,50,18.20
2010,07,11,16,51,12.10
2010,07,11,16,52,12.30
2010,07,11,16,53,17.10
2010,07,11,16,54,15.50
2010,07,11,16,55,11.10
2010,07,11,16,56,13.90
2010,07,11,16,57,11.90
2010,07,11,16,58,15.60
2010,07,11,16,59,12.30
2010,07,11,17,00,14.00
2010,07,11,17,01,18.20
2010,07,11,17,02,14.40
2010,07,11,17,03,11.40
2010,07,11,17,04,18.90
2010,07,11,17,05,15.80
2010,07,11,17,06,13.40
2010,07,11,17,07,15.30
2010,07,11,17,08,15.50
2010,07,11,17,09,13.80
2010,07,11,17,10,13.00
2010,07,11,17,11,18.10
2010,07,11,17,12,17.20
2010,07,11,17,13,17.70
2010,07,11,17,14,14.90
2010,07,11,17,15,16.30
2010,07,11,17,16,15.90
2010,07,11,17,17,20.60
2010,07,11,17,18,12.90
2010,07,11,17,19,14.00
2010,07,11,17,20,15.80
2010,07,11,17,21,15.80
2010,07,11,17,22,17.00
2010,07,11,17,23,12.00
2010,07,11,17,24,17.60
2010,07,11,17,25,17.50
2010,07,11,17,26,16.20
2010,07,11,17,27,21.70
2010,07,11,17,28,18.50
2010,07,11,17,29,11.40
2010,07,11,17,30,17.80
2010,07,11,17,31,17.30
2010,07,11,17,32,15.60
2010,07,11,17,33,18.60
2010,07,11,17,34,15.50
2010,07,11,17,35,18.60
2010,07,11,17,36,22.80
2010,07,11,17,37,13.60
2010,07,11,17,38,20.10
2010,07,11,17,39,16.90
2010,07,11,17,40,11.10
2010,07,11,17,41,16.70
2010,07,11,17,42,21.80
2010,07,11,17,43,17.10
2010,07,11,17,44,18.60
2010,07,11,17,45,16.30
2010,07,11,17,46,15.20
2010,07,11,17,47,18.90
2010,07,11,17,48,17.90
2010,07,11,17,49,18.30
2010,07,11,17,50,19.50
2010,07,11,17,51,16.00
2010,07,11,17,52,17.40
2010,07,11,17,53,17.80
2010,07,11,17,54,15.20
2010,07,11,17,55,13.40
2010,07,11,17,56,16.80
2010,07,11,17,57,19.20